This is the latest recevied weather packets stored in our database for station/object DL3MEB-6. If no packets are shown the sender has not sent any weather packets the latest 10 day(s).
| Time | Temp. | Humidity | Pressure | Rain* | Wind** | Luminosity | Snow |
|---|---|---|---|---|---|---|---|
| 1777689432 | 5.56° C | 75% | 1022.7 hPa | 0 mm | - | - | - |
| 1777688531 | 6.11° C | 75% | 1022.7 hPa | 0 mm | - | - | - |
| 1777687624 | 6.11° C | 74% | 1022.7 hPa | 0 mm | - | - | - |
| 1777686709 | 6.11° C | 73% | 1022.8 hPa | 0 mm | - | - | - |
| 1777685802 | 6.67° C | 72% | 1022.9 hPa | 0 mm | - | - | - |
| 1777684899 | 6.67° C | 71% | 1022.9 hPa | 0 mm | - | - | - |
| 1777683985 | 6.67° C | 69% | 1023.1 hPa | 0 mm | - | - | - |
| 1777683073 | 7.22° C | 68% | 1023.2 hPa | 0 mm | - | - | - |
| 1777682163 | 7.22° C | 67% | 1023.3 hPa | 0 mm | - | - | - |
| 1777681263 | 7.78° C | 66% | 1023.5 hPa | 0 mm | - | - | - |
| 1777680361 | 7.78° C | 65% | 1023.6 hPa | 0 mm | - | - | - |
| 1777679454 | 8.33° C | 64% | 1023.7 hPa | 0 mm | - | - | - |
| 1777678542 | 8.33° C | 63% | 1023.7 hPa | 0 mm | - | - | - |
| 1777677631 | 8.89° C | 62% | 1023.9 hPa | 0 mm | - | - | - |
| 1777676731 | 8.89° C | 62% | 1024 hPa | 0 mm | - | - | - |
| 1777675822 | 9.44° C | 59% | 1023.9 hPa | 0 mm | - | - | - |
| 1777674916 | 10° C | 58% | 1024 hPa | 0 mm | - | - | - |
| 1777674006 | 10° C | 58% | 1024.1 hPa | 0 mm | - | - | - |
| 1777673100 | 10.56° C | 56% | 1024.4 hPa | 0 mm | - | - | - |
| 1777672198 | 11.11° C | 54% | 1024.3 hPa | 0 mm | - | - | - |
| 1777671282 | 11.11° C | 53% | 1024.2 hPa | 0 mm | - | - | - |
| 1777670374 | 11.67° C | 53% | 1024.3 hPa | 0 mm | - | - | - |
| 1777669469 | 12.22° C | 51% | 1024.5 hPa | 0 mm | - | - | - |
| 1777668568 | 12.78° C | 49% | 1024.5 hPa | 0 mm | - | - | - |
| 1777667655 | 12.78° C | 47% | 1024.6 hPa | 0 mm | - | - | - |
* Rain latest hour (hover to see other rain measurements)
** Current wind speed in m/s (hover to see current wind gust speed)